Home > Weather > Vista > Past weeks

Flag for U.S.A. Weather for the Past 2 Weeks in Vista, California, U.S.A.

Now
59 °F

Clear.


Feels Like: 58 °F
Forecast: 53 / 83 °F
Wind: 6 mph from East

Location: McClellan-Palomar Airport

Current Time: Feb 9, 2016 at 4:15:30 AM

Latest Report: Feb 9, 2016 at 2:53 AM


Visibility: 10 mi

Pressure: 30.09 "Hg

Humidity: 29%

Dew point: 27 °F

Location of VistaLocation

Historic Weather in Vista — Graph

°F

Vista Temperature Yesterday

Maximum temperature yesterday: 83 °F (at 10:53 AM)
Minimum temperature yesterday: 56 °F (at 2:53 AM)
Average temperature yesterday: 69 °F

High & Low Weather Summary for the Past Weeks

 TemperatureHumidityPressure
High83 °F (Feb 8, 10:53 AM)97% (Jan 30, 6:58 AM)30.34 "Hg (Jan 30, 6:58 AM)
Low39 °F (Feb 2, 5:53 AM)12% (Feb 7, 10:53 AM)29.69 "Hg (Jan 31, 2:53 PM)
Average58 °F49%30.12 "Hg
* Reported Jan 25 1:53 AM — Feb 9 1:53 AM, Vista, Weather by CustomWeather, © 2016

Note: Actual official high and low records may vary slightly from our data, if they occured in-between our weather recording intervals... More about our weather records

Advertising

Vista Weather History for the Previous 24 Hours

 ConditionsComfort  
Time TempWeatherWind HumidityBarometerVisibility
1:53 AM
Tue, Feb 9
60 °FClear.3 mph28%30.09 "Hg10 mi
12:53 AM63 °FClear.3 mph26%30.09 "Hg10 mi
11:53 PM
Mon, Feb 8
63 °FClear.5 mph29%30.10 "Hg10 mi
10:53 PM63 °FClear.3 mph31%30.11 "Hg10 mi
9:53 PM63 °FClear.No wind35%30.11 "Hg10 mi
8:53 PM65 °FClear.3 mph33%30.09 "Hg10 mi
7:53 PM66 °FClear.No wind29%30.09 "Hg10 mi
6:53 PM68 °FClear.No wind27%30.07 "Hg10 mi
5:53 PM74 °FClear.No wind19%30.06 "Hg10 mi
4:53 PM79 °FSunny.No wind17%30.06 "Hg10 mi
3:53 PM78 °FSunny.5 mph19%30.06 "Hg10 mi
2:53 PM79 °FSunny.5 mph20%30.06 "Hg10 mi
1:53 PM78 °FSunny.3 mph29%30.07 "Hg10 mi
12:53 PM81 °FSunny.9 mph14%30.08 "Hg10 mi
11:53 AM80 °FSunny.10 mph15%30.10 "Hg10 mi
10:53 AM83 °FSunny.3 mph15%30.10 "Hg10 mi
9:53 AM79 °FSunny.3 mph19%30.11 "Hg10 mi
8:53 AM74 °FSunny.5 mph21%30.12 "Hg10 mi
7:53 AM68 °FSunny.3 mph23%30.10 "Hg10 mi
6:53 AM62 °FSunny.6 mph25%30.09 "Hg10 mi
5:53 AM61 °FClear.5 mph26%30.07 "Hg10 mi
4:53 AM58 °FClear.No wind31%30.06 "Hg10 mi
Weather by CustomWeather, © 2016

See weather overviewHow to use our weather pages